sat.trackr.live / text

‹ back to catalog

STARLINK-35814

NORAD 66576 · 2025-268V

PAYLOAD ACTIVE UNKNOWN

§ Identity

Operator
Country
US
Launch date
2025-11-21
Launch site
AFETR
Launch vehicle
Mass (kg)
RCS (m²)

Purposes: comms

External: N2YO · Heavens-Above · Gunter

§ Orbital elements

Epoch: 2026-09-19T22:05:29.861664Z

Period
94.27 min
Inclination
43.0030°
Eccentricity
0.0001770
Mean motion
15.27584464 rev/d
Perigee alt
481.8 km
Apogee alt
484.3 km
Semi-major
6,861.2 km
B*
3.5702e-4
RAAN
330.2513°
Arg perigee
271.2135°
Mean anomaly
88.8514°
Rev number
4,766

§ Raw data

STARLINK-358141 66576U 25268V   26262.92048451  .00009576  00000+0  35702-3 0  99902 66576  43.0030 330.2513 0001770 271.2135  88.8514 15.27584464 47668

JSON: /api/v1/satellites/66576 · /tle

For live sub-satellite position, see the globe view (requires WebGL).

§ Visibility from observer

Set your observer location to see the next 7 days of passes ≥ 10°. The values pass through the URL so the page stays shareable.

No JS? Fill the form by hand. The geolocation button needs JavaScript.